Retour au catalogue

STARLINK-4394

ActifCommunicationsSSO
NORAD 53467·PAYLOAD·🇺🇸 United States

Lancé Aug 12, 2022 depuis Vandenberg Space Force Base

Loading…

Prochains Passages (prochaines 24 heures)

TLE

FraisSource: CelesTrak SupGP

Époque: Sep 15, 2026, 02:19 UTC

1 53467C 22099C   26258.09701389  .00145260  00000+0  40294-2 0  2583
2 53467  97.5440  28.1508 0001139  85.3101  21.7781 15.36903604    16

Suivez STARLINK-4394 en temps réel avec AllMySat

Download on the App Store